Date_and_time,latitude,longitude,wind_speed,RelWindDirFrom,WindDirFrom,air_pressure,air_temperature,relative_humidity,Temp,platform_speed_wrt_ground,air_pressure_at_mean_sea_level,platform_orientation
2019-01-17 00:00,50.6304383333333,-96.980765,0.0,0.0,0,999.37,-19.7,66,0.41,0.0,1029.83,131.7
2019-01-17 00:00,50.6304416666667,-96.9807616666667,0.0,0.0,0,999.44,-19.7,66,0.41,0.0,1029.90,299.2
2019-01-17 00:10,50.6304466666667,-96.980765,1.9,3.1,175,999.37,-20.3,66,0.41,0.0,1029.86,299.2
2019-01-17 00:20,50.63045,-96.980765,1.6,2.3,184,999.45,-20.3,67,0.41,0.0,1029.94,299.2
2019-01-17 00:30,50.6304516666667,-96.98076,2.1,3.1,185,999.34,-20.3,67,0.41,0.0,1029.84,299.2
2019-01-17 00:40,50.6304516666667,-96.9807633333333,2.5,3.8,185,999.30,-20.3,68,0.41,0.0,1029.79,299.2
2019-01-17 00:50,50.6304616666667,-96.9808,3.4,4.7,185,999.34,-20.3,68,0.42,0.0,1029.85,299.2
2019-01-17 01:00,50.6304566666667,-96.98077,3.8,4.8,177,999.23,-20.4,66,0.42,0.0,1029.73,0.0
2019-01-17 01:10,50.630455,-96.9807666666667,4.5,5.2,179,999.17,-20.5,67,0.43,0.0,1029.68,0.0
2019-01-17 01:20,50.630455,-96.980765,3.9,5.2,186,999.09,-20.5,67,0.42,0.0,1029.59,0.0
2019-01-17 01:30,50.630455,-96.980765,4.3,5.6,186,999.03,-20.5,67,0.42,0.0,1029.51,0.0
2019-01-17 01:40,50.6304533333333,-96.9807816666667,4.8,6.1,186,998.97,-20.5,68,0.42,0.0,1029.42,0.0
2019-01-17 01:50,50.6304483333333,-96.9807316666667,4.6,5.5,188,998.97,-20.5,68,0.42,0.0,1029.42,0.0
2019-01-17 02:00,50.6304533333333,-96.98077,5.2,6.5,184,998.79,-20.5,68,0.42,0.0,1029.26,38.0
2019-01-17 02:10,50.6304533333333,-96.9807683333333,5.5,6.9,187,998.63,-20.5,69,0.42,0.0,1029.10,38.0
2019-01-17 02:20,50.6304533333333,-96.9807633333333,5.1,6.1,185,998.54,-20.6,69,0.42,0.0,1029.01,38.0
2019-01-17 02:30,50.6304333333333,-96.9807566666667,4.6,5.8,188,998.42,-20.5,69,0.42,0.0,1028.89,38.0
2019-01-17 02:40,50.63045,-96.9807633333333,4.1,5.5,190,998.20,-20.5,69,0.42,0.0,1028.66,38.0
2019-01-17 02:50,50.6304483333333,-96.9807666666667,3.5,4.5,188,998.07,-20.4,69,0.42,0.0,1028.52,38.0
2019-01-17 03:00,50.63045,-96.9807683333333,2.9,4.5,187,998.03,-20.3,69,0.42,0.0,1028.48,360.0
2019-01-17 03:10,50.63045,-96.98077,3.0,4.0,183,997.89,-20.3,69,0.42,0.0,1028.34,360.0
2019-01-17 03:20,50.63045,-96.9807716666667,3.1,4.0,181,997.91,-20.2,69,0.42,0.0,1028.36,360.0
2019-01-17 03:30,50.6304516666667,-96.980775,3.5,4.6,182,997.81,-20.2,69,0.42,0.0,1028.25,360.0
2019-01-17 03:40,50.6304566666667,-96.9807716666667,2.9,3.8,192,997.79,-20.1,69,0.42,0.0,1028.22,360.0
2019-01-17 03:50,50.6304533333333,-96.98077,3.0,4.6,194,997.71,-20.1,69,0.42,0.0,1028.14,360.0
2019-01-17 04:00,50.6304533333333,-96.98077,3.8,4.9,199,997.72,-20.2,69,0.42,0.0,1028.15,0.0
2019-01-17 04:10,50.6304533333333,-96.980765,3.2,4.4,201,997.66,-20.3,69,0.42,0.0,1028.11,0.0
2019-01-17 04:20,50.6304533333333,-96.9807666666667,2.1,3.8,194,997.62,-20.4,69,0.42,0.0,1028.07,0.0
2019-01-17 04:30,50.630455,-96.9807666666667,1.5,2.1,192,997.62,-20.5,69,0.42,0.0,1028.07,0.0
2019-01-17 04:40,50.6304133333333,-96.9807683333333,2.1,2.8,184,997.57,-20.5,70,0.42,0.0,1028.02,0.0
2019-01-17 04:50,50.6304566666667,-96.98077,3.5,4.1,189,997.71,-20.6,71,0.42,0.0,1028.17,0.0
2019-01-17 05:00,50.63043,-96.98074,3.9,4.4,195,997.68,-20.7,71,0.42,0.0,1028.14,152.8
2019-01-17 05:10,50.6304366666667,-96.98075,3.4,4.1,196,997.59,-20.9,72,0.43,0.0,1028.05,152.8
2019-01-17 05:20,50.6304416666667,-96.980755,4.0,4.8,196,997.43,-21.0,72,0.43,0.0,1027.89,152.8
2019-01-17 05:30,50.630445,-96.980755,4.8,5.8,201,997.43,-21.1,72,0.43,0.0,1027.89,152.8
2019-01-17 05:40,50.6304566666667,-96.980775,4.8,5.8,206,997.55,-21.2,72,0.42,0.0,1028.01,152.8
2019-01-17 05:50,50.63045,-96.9807633333333,4.9,6.0,196,997.46,-21.3,73,0.43,0.0,1027.93,152.8
2019-01-17 06:00,50.63045,-96.980765,4.7,5.9,198,997.29,-21.3,73,0.43,0.0,1027.77,0.0
2019-01-17 06:10,50.6304733333333,-96.9807833333333,3.6,4.9,204,997.26,-21.3,73,0.42,0.0,1027.74,0.0
2019-01-17 06:20,50.63046,-96.9807866666667,2.2,3.0,219,997.25,-21.2,73,0.42,0.0,1027.74,0.0
2019-01-17 06:30,50.6304516666667,-96.9807783333333,1.9,3.2,227,997.26,-21.1,73,0.43,0.0,1027.74,0.0
2019-01-17 06:40,50.630455,-96.9807716666667,2.1,3.0,227,997.18,-21.0,73,0.42,0.0,1027.66,0.0
2019-01-17 06:50,50.630455,-96.980765,2.1,3.2,229,997.23,-21.0,74,0.42,0.0,1027.72,0.0
2019-01-17 07:00,50.6304516666667,-96.9807616666667,2.5,3.7,234,997.19,-21.1,74,0.42,0.0,1027.69,90.0
2019-01-17 07:10,50.6304483333333,-96.9807616666667,2.4,3.4,240,997.10,-21.2,74,0.42,0.0,1027.61,90.0
2019-01-17 07:20,50.6304466666667,-96.980775,2.6,3.5,222,996.81,-21.3,74,0.42,0.0,1027.33,90.0
2019-01-17 07:30,50.6304433333333,-96.9807716666667,2.5,3.4,212,996.76,-21.4,75,0.42,0.0,1027.28,90.0
2019-01-17 07:40,50.6304466666667,-96.9807716666667,1.7,2.3,222,996.75,-21.3,75,0.42,0.0,1027.28,90.0
2019-01-17 07:50,50.630445,-96.980775,1.6,3.3,256,996.86,-21.1,75,0.42,0.0,1027.38,90.0
2019-01-17 08:00,50.63045,-96.9807783333333,1.9,3.4,282,996.87,-20.8,74,0.42,0.0,1027.37,319.7
2019-01-17 08:10,50.63045,-96.980775,3.0,4.6,268,996.91,-20.9,74,0.42,0.0,1027.41,319.7
2019-01-17 08:20,50.6304416666667,-96.9807766666667,2.5,4.2,248,996.84,-20.9,74,0.42,0.0,1027.34,319.7
2019-01-17 08:30,50.63042,-96.9807816666667,2.6,4.1,269,996.82,-20.8,74,0.41,0.0,1027.30,319.7
2019-01-17 08:40,50.63047,-96.98078,3.3,4.7,254,996.89,-20.8,74,0.41,0.0,1027.37,319.7
2019-01-17 08:50,50.6304583333333,-96.9807666666667,2.9,4.9,254,996.79,-20.8,73,0.41,0.0,1027.27,319.7
2019-01-17 09:00,50.63047,-96.9807516666667,3.0,5.4,269,996.72,-20.8,73,0.41,0.0,1027.20,14.5
2019-01-17 09:10,50.6304583333333,-96.9807616666667,2.9,4.4,270,996.52,-20.8,72,0.41,0.0,1027.01,14.5
2019-01-17 09:20,50.6304533333333,-96.9807616666667,3.1,5.2,281,996.44,-20.7,72,0.41,0.0,1026.93,14.5
2019-01-17 09:30,50.6304516666667,-96.9807666666667,2.4,5.0,288,996.32,-20.7,72,0.41,0.0,1026.79,14.5
2019-01-17 09:40,50.6304516666667,-96.9807666666667,2.4,4.1,274,996.12,-20.7,72,0.41,0.0,1026.58,14.5
2019-01-17 09:50,50.6304533333333,-96.9807666666667,2.4,4.2,283,996.09,-20.7,73,0.41,0.0,1026.52,14.5
2019-01-17 10:00,50.6304483333333,-96.9808033333333,2.6,4.0,270,996.01,-20.7,73,0.41,0.0,1026.44,259.8
2019-01-17 10:10,50.63045,-96.980775,2.5,4.7,269,995.94,-20.7,74,0.41,0.0,1026.38,259.8
2019-01-17 10:20,50.630455,-96.9807633333333,2.3,4.2,267,996.12,-20.6,74,0.41,0.0,1026.55,259.8
2019-01-17 10:30,50.630455,-96.9807633333333,3.2,5.6,281,996.13,-20.6,75,0.41,0.0,1026.56,259.8
2019-01-17 10:40,50.6304566666667,-96.9807566666667,2.7,4.8,291,995.95,-20.5,75,0.41,0.0,1026.38,259.8
2019-01-17 10:50,50.6304566666667,-96.9807583333333,3.5,5.8,302,996.02,-20.4,76,0.41,0.0,1026.44,259.8
2019-01-17 11:00,50.6304483333333,-96.980765,4.2,6.1,294,996.15,-20.4,76,0.41,0.0,1026.57,113.6
2019-01-17 11:10,50.63045,-96.9807666666667,3.5,5.0,284,995.93,-20.5,76,0.41,0.0,1026.34,113.6
2019-01-17 11:20,50.6304516666667,-96.98077,3.5,5.7,281,995.93,-20.4,77,0.41,0.0,1026.33,113.6
2019-01-17 11:30,50.6304516666667,-96.9807683333333,3.8,5.5,274,995.96,-20.3,77,0.41,0.0,1026.36,113.6
2019-01-17 11:40,50.6304666666667,-96.980775,4.3,5.7,267,996.23,-20.2,78,0.41,0.0,1026.63,113.6
2019-01-17 11:50,50.630455,-96.9807633333333,3.7,5.7,263,996.29,-20.1,78,0.41,0.0,1026.69,113.6
2019-01-17 12:00,50.6304566666667,-96.980765,3.9,5.9,270,996.23,-20.0,79,0.41,0.0,1026.62,360.0
2019-01-17 12:10,50.630455,-96.980765,3.7,5.1,270,996.11,-19.9,79,0.41,0.0,1026.48,360.0
2019-01-17 12:20,50.630455,-96.980765,4.2,5.9,293,996.01,-19.8,79,0.41,0.0,1026.37,360.0
2019-01-17 12:30,50.6304566666667,-96.9807666666667,3.8,5.9,290,995.89,-19.7,79,0.41,0.0,1026.25,360.0
2019-01-17 12:40,50.6304566666667,-96.9807666666667,3.5,5.8,282,995.95,-19.6,80,0.41,0.0,1026.30,360.0
2019-01-17 12:50,50.630455,-96.9807683333333,3.5,5.9,308,996.00,-19.5,80,0.41,0.0,1026.34,360.0
2019-01-17 13:00,50.6304516666667,-96.9807616666667,2.7,5.3,303,995.88,-19.5,80,0.41,0.0,1026.21,79.8
2019-01-17 13:10,50.6304516666667,-96.9807533333333,2.4,4.4,303,995.71,-19.4,80,0.41,0.0,1026.04,79.8
2019-01-17 13:20,50.63046,-96.9807633333333,1.6,3.4,283,995.81,-19.4,80,0.41,0.0,1026.13,79.8
2019-01-17 13:30,50.630455,-96.9807633333333,0.9,2.5,283,995.84,-19.4,80,0.41,0.0,1026.15,79.8
2019-01-17 13:40,50.6304516666667,-96.9807683333333,2.5,4.0,288,995.86,-19.4,80,0.41,0.0,1026.16,79.8
2019-01-17 13:50,50.63044,-96.980755,2.6,4.6,289,995.78,-19.4,80,0.41,0.0,1026.07,79.8
2019-01-17 14:00,50.6304483333333,-96.9807616666667,3.5,5.2,292,995.86,-19.4,80,0.41,0.0,1026.16,90.0
2019-01-17 14:10,50.630445,-96.9807566666667,2.6,4.4,286,995.66,-19.5,80,0.41,0.0,1025.95,90.0
2019-01-17 14:20,50.6304466666667,-96.980765,2.8,4.6,267,995.67,-19.6,81,0.41,0.0,1025.96,90.0
2019-01-17 14:30,50.63045,-96.9807683333333,3.1,4.5,269,995.85,-19.7,81,0.41,0.0,1026.14,90.0
2019-01-17 14:40,50.630455,-96.9807666666667,2.8,4.6,258,996.01,-19.8,81,0.41,0.0,1026.31,90.0
2019-01-17 14:50,50.6304566666667,-96.9807616666667,3.2,5.0,245,996.03,-20.0,81,0.41,0.0,1026.34,90.0
2019-01-17 15:00,50.6304533333333,-96.9807633333333,3.5,5.5,270,996.13,-19.7,80,0.41,0.0,1026.42,0.0
2019-01-17 15:10,50.63045,-96.9807633333333,4.1,6.1,277,996.27,-19.4,78,0.41,0.0,1026.55,0.0
2019-01-17 15:20,50.630455,-96.98077,4.4,6.4,282,996.35,-19.2,77,0.41,0.0,1026.61,0.0
2019-01-17 15:30,50.63045,-96.9807733333333,5.0,7.3,284,996.36,-19.0,76,0.41,0.0,1026.61,0.0
2019-01-17 15:40,50.63045,-96.98077,4.1,6.8,286,996.41,-18.8,75,0.41,0.0,1026.65,0.0
2019-01-17 15:50,50.6304516666667,-96.9807716666667,4.8,8.1,290,996.51,-18.6,74,0.41,0.0,1026.75,0.0
2019-01-17 16:00,50.6304516666667,-96.98077,5.3,8.9,295,996.50,-18.5,73,0.41,0.0,1026.73,270.0
2019-01-17 16:10,50.6304533333333,-96.9807716666667,5.2,9.0,293,996.57,-18.3,71,0.41,0.0,1026.80,270.0
2019-01-17 16:20,50.63046,-96.9807616666667,6.5,10.3,288,996.72,-18.2,70,0.41,0.0,1026.95,270.0
2019-01-17 16:30,50.630455,-96.9807633333333,5.8,9.1,287,996.72,-18.1,69,0.41,0.0,1026.96,270.0
2019-01-17 16:40,50.6304533333333,-96.980765,6.1,8.9,297,996.69,-17.9,68,0.43,0.0,1026.93,270.0
2019-01-17 16:50,50.6304533333333,-96.980765,6.0,8.1,301,996.65,-17.9,67,0.43,0.0,1026.87,270.0
2019-01-17 17:00,50.63045,-96.9807533333333,6.6,10.2,304,996.57,-17.7,66,0.43,0.0,1026.76,12.6
2019-01-17 17:10,50.6304466666667,-96.980765,6.4,10.3,301,996.50,-17.6,65,0.44,0.0,1026.67,12.6
2019-01-17 17:20,50.630445,-96.9807616666667,5.9,9.7,296,996.43,-17.6,65,0.44,0.0,1026.58,12.6
2019-01-17 17:30,50.6304466666667,-96.9807633333333,7.1,10.7,295,996.42,-17.5,64,0.43,0.0,1026.54,12.6
2019-01-17 17:40,50.6304483333333,-96.9807633333333,8.7,14.0,305,996.39,-17.4,62,0.43,0.0,1026.50,12.6
2019-01-17 17:50,50.630445,-96.9807616666667,7.7,12.5,312,996.41,-17.5,61,0.43,0.0,1026.53,12.6
2019-01-17 18:00,50.630445,-96.9807633333333,7.9,12.1,314,996.31,-17.6,60,0.43,0.0,1026.42,360.0
2019-01-17 18:10,50.630445,-96.9807633333333,8.0,14.5,293,996.18,-17.5,61,0.42,0.0,1026.26,360.0
2019-01-17 18:20,50.6304466666667,-96.980765,11.9,18.5,295,995.89,-17.8,62,0.42,0.0,1025.97,360.0
2019-01-17 18:30,50.6304466666667,-96.9807666666667,10.4,18.6,304,995.91,-17.7,62,0.42,0.0,1025.99,360.0
2019-01-17 18:40,50.630445,-96.980765,10.2,16.0,305,995.79,-17.7,62,0.42,0.0,1025.86,360.0
2019-01-17 18:50,50.6304466666667,-96.9807666666667,8.3,12.7,297,995.78,-17.6,61,0.42,0.0,1025.83,360.0
2019-01-17 19:00,50.6304466666667,-96.9807666666667,10.0,14.3,296,995.63,-17.6,61,0.42,0.0,1025.67,360.0
2019-01-17 19:10,50.6304466666667,-96.9807666666667,10.6,15.8,293,995.43,-17.6,60,0.42,0.0,1025.47,360.0
2019-01-17 19:20,50.6304466666667,-96.9807666666667,8.6,13.7,299,995.42,-17.5,60,0.42,0.0,1025.45,360.0
2019-01-17 19:30,50.6304466666667,-96.9807683333333,7.5,11.2,303,995.41,-17.4,59,0.42,0.0,1025.42,360.0
2019-01-17 19:40,50.6304466666667,-96.9807666666667,6.4,9.9,293,995.39,-17.1,59,0.42,0.0,1025.39,360.0
2019-01-17 19:50,50.6304466666667,-96.9807683333333,6.7,9.8,293,995.27,-17.1,59,0.42,0.0,1025.27,360.0
2019-01-17 20:00,50.6304483333333,-96.9807716666667,6.9,10.5,295,995.21,-17.0,59,0.42,0.0,1025.20,246.4
2019-01-17 20:10,50.6304483333333,-96.9807733333333,7.3,11.7,292,995.12,-16.8,58,0.42,0.0,1025.11,246.4
2019-01-17 20:20,50.6304583333333,-96.9808033333333,7.3,12.1,295,995.10,-16.7,58,0.42,0.0,1025.09,246.4
2019-01-17 20:30,50.63044,-96.9807833333333,7.8,11.9,300,995.09,-16.7,58,0.42,0.0,1025.07,246.4
2019-01-17 20:40,50.6304416666667,-96.98078,7.2,10.9,304,995.15,-16.6,57,0.42,0.0,1025.12,246.4
2019-01-17 20:50,50.6304433333333,-96.9807783333333,7.4,10.5,297,995.26,-16.5,56,0.43,0.0,1025.23,246.4
2019-01-17 21:00,50.6304433333333,-96.9807766666667,7.9,11.8,294,995.22,-16.6,56,0.43,0.0,1025.19,270.0
2019-01-17 21:10,50.63045,-96.980785,7.3,10.2,307,995.28,-16.7,56,0.43,0.0,1025.26,270.0
2019-01-17 21:20,50.6304483333333,-96.9807733333333,9.2,13.7,308,995.27,-16.8,55,0.43,0.0,1025.24,270.0
2019-01-17 21:30,50.6304483333333,-96.98077,9.1,13.6,304,995.41,-17.0,55,0.44,0.0,1025.38,270.0
2019-01-17 21:40,50.6304483333333,-96.9807716666667,9.5,13.7,307,995.55,-17.1,55,0.44,0.0,1025.54,270.0
2019-01-17 21:50,50.6304133333333,-96.9807683333333,7.5,12.1,309,995.75,-17.2,55,0.44,0.0,1025.74,270.0
2019-01-17 22:00,50.6304366666667,-96.9807566666667,8.3,12.4,304,995.71,-17.3,55,0.44,0.0,1025.69,165.5
2019-01-17 22:10,50.6304433333333,-96.980795,7.5,10.8,308,995.79,-17.4,54,0.44,0.0,1025.77,165.5
2019-01-17 22:20,50.6304516666667,-96.980765,7.3,10.8,310,995.88,-17.5,54,0.44,0.0,1025.88,165.5
2019-01-17 22:30,50.6304483333333,-96.980765,7.1,10.4,313,996.04,-17.7,54,0.45,0.0,1026.05,165.5
2019-01-17 22:40,50.630445,-96.980765,6.8,9.3,319,996.14,-18.0,54,0.44,0.0,1026.16,165.5
2019-01-17 22:50,50.630445,-96.9807683333333,6.9,9.6,329,996.21,-18.5,55,0.44,0.0,1026.27,165.5
2019-01-17 23:00,50.6304633333333,-96.9807716666667,7.1,9.7,335,996.23,-19.1,55,0.44,0.0,1026.33,360.0
2019-01-17 23:10,50.6304566666667,-96.980765,7.2,9.0,334,996.35,-19.5,55,0.45,0.0,1026.48,360.0
2019-01-17 23:20,50.6304566666667,-96.9807666666667,6.9,10.1,323,996.38,-19.7,56,0.45,0.0,1026.54,360.0
2019-01-17 23:30,50.6304566666667,-96.98077,6.2,8.6,316,996.49,-19.8,56,0.45,0.0,1026.66,360.0
2019-01-17 23:40,50.6304216666667,-96.980765,5.7,7.6,314,996.62,-20.0,55,0.45,0.0,1026.81,360.0
